Theta_e
304 304 304 304 304 304 303 302 302 302 302 301 301 301 302 302 300 292 289 291 287 280 281 283 283 282 282 282 279 282 282 284 284 280 281 279 276 279 277 283 284 282 279 279 277 274 273 274 280 281 279 276 275 274
304 304 304 303 303 303 302 302 302 301 301 301 301 302 302 301 300 296 288 291 291 282 282 287 287 287 286 289 286 286 284 285 286 284 281 279 269 270 273 278 284 279 279 278 276 274 272 273 272 274 274 272 271 271
302 303 303 303 303 302 302 302 301 301 301 302 302 302 302 300 300 295 288 289 288 280 285 285 284 286 288 287 289 286 284 288 286 287 283 278 272 276 271 275 279 277 272 276 275 271 270 270 271 271 271 270 270 270
300 302 303 302 302 302 301 301 301 301 301 302 302 301 301 301 300 295 288 289 288 282 281 282 289 285 288 290 291 291 290 290 289 287 283 278 279 282 274 274 269 265 269 271 269 270 270 269 268 269 269 269 268 269
298 302 302 302 302 301 301 301 301 301 301 302 301 301 301 300 298 293 290 289 289 286 279 282 286 287 288 290 290 291 290 288 284 284 279 277 280 278 272 268 261 263 262 265 266 265 267 267 267 267 266 265 266 266
297 301 302 302 302 302 301 301 301 301 301 301 301 301 300 300 297 292 286 289 290 290 285 278 283 283 284 290 288 287 288 286 284 284 281 280 274 275 263 260 262 263 265 264 261 264 267 267 267 266 264 264 264 264
295 298 302 302 303 302 302 302 302 302 302 302 301 301 298 294 286 281 280 285 290 289 276 274 278 281 280 284 285 286 288 284 283 282 280 272 266 267 261 258 261 261 263 263 263 264 266 263 261 263 263 263 263 263
293 295 300 302 302 302 302 302 302 301 301 299 297 296 295 293 290 282 284 287 292 280 275 271 272 279 277 281 279 285 282 281 281 279 272 267 263 262 254 259 260 260 262 262 261 261 261 261 262 261 261 261 260 260
291 293 295 301 302 302 301 300 299 299 298 297 297 295 288 283 280 281 288 284 279 278 266 261 262 272 274 276 280 282 284 277 281 271 266 264 257 252 257 258 258 259 259 258 259 260 259 258 258 259 259 258 258 258
290 290 292 293 298 300 299 299 299 298 296 294 289 285 278 278 288 285 277 275 272 266 265 261 264 264 270 273 276 279 280 275 272 268 264 257 255 259 259 259 259 259 259 258 256 256 256 255 256 257 257 258 258 258
289 289 289 290 291 293 297 297 295 294 291 285 278 275 277 281 279 273 266 265 264 263 261 261 264 263 270 270 271 276 274 273 270 267 261 256 256 259 259 259 259 259 259 258 257 257 257 257 256 257 257 257 257 256
289 288 288 287 288 290 290 293 290 281 280 281 276 275 271 266 267 267 259 260 257 255 259 259 262 263 265 268 272 272 272 272 266 267 261 255 258 259 258 257 258 258 256 255 255 255 256 257 256 255 255 254 254 255
289 287 287 286 286 286 290 290 287 284 279 274 267 262 265 258 257 256 255 257 255 255 256 256 261 262 268 269 268 269 268 265 265 257 255 257 259 258 256 256 256 255 253 254 254 254 255 255 255 254 254 254 253 252
287 287 286 286 284 283 282 284 281 276 268 262 262 256 253 252 252 252 252 253 257 257 256 256 258 261 263 264 261 266 260 260 258 257 255 256 256 254 253 253 249 251 251 252 252 252 252 253 254 254 252 252 251 252
285 285 286 283 284 281 280 278 274 264 262 258 259 252 254 253 254 252 252 252 254 255 254 254 256 259 257 260 255 259 258 249 251 255 254 254 253 251 250 249 248 249 250 249 248 249 251 252 251 252 253 250 250 251
282 280 280 285 281 280 276 270 263 260 256 254 252 256 251 251 251 248 246 246 251 253 252 252 253 257 252 249 254 246 251 250 253 246 248 247 247 247 247 247 248 246 246 247 248 246 249 248 249 251 251 251 251 250
279 268 282 283 280 277 276 262 261 255 254 253 251 244 246 245 249 248 247 251 252 247 249 247 254 250 250 250 249 245 251 252 249 247 244 246 248 248 247 244 246 245 246 247 243 246 246 248 246 245 247 251 251 252
269 271 282 280 271 269 263 262 258 256 251 247 252 250 246 246 245 246 246 247 247 245 247 250 252 249 246 249 247 248 245 243 241 244 245 245 244 245 244 247 247 244 245 245 245 244 241 244 244 248 249 251 252 252
277 278 279 279 271 263 260 259 258 253 248 247 247 245 246 246 247 248 244 246 245 245 249 248 251 246 248 245 247 243 240 242 248 247 245 244 244 245 246 242 242 241 243 242 242 247 247 246 248 249 250 251 252 252
278 280 279 275 272 262 257 255 256 255 250 252 246 248 246 248 246 242 241 243 243 245 251 249 246 247 249 247 245 247 247 245 244 244 246 247 243 242 244 244 246 243 243 242 244 245 242 245 244 242 245 248 251 250
272 272 274 264 260 258 255 254 255 251 250 251 246 248 249 246 244 243 243 242 249 240 249 243 243 244 239 239 240 241 244 246 248 250 249 246 246 243 246 246 242 239 240 242 243 246 243 243 246 243 247 250 250 250
264 273 262 266 259 255 254 252 254 251 253 248 249 246 246 248 245 245 242 249 244 247 245 244 244 242 243 246 247 245 246 244 242 242 245 243 247 246 246 245 243 244 244 246 244 245 246 245 244 244 244 248 248 248
267 266 261 261 259 256 251 250 251 248 251 249 245 248 246 242 242 244 248 242 246 244 242 242 242 240 245 241 239 241 240 243 246 247 247 247 247 247 245 247 243 244 246 249 243 243 244 246 245 246 246 246 244 245
262 254 254 252 255 250 247 248 246 246 243 244 244 248 246 242 244 246 250 244 249 239 243 244 241 245 244 242 245 249 248 246 246 244 242 241 245 249 247 248 244 245 246 247 243 244 244 244 244 243 244 243 244 244
261 252 252 250 245 250 246 244 243 247 246 239 245 248 246 238 246 246 250 251 244 244 248 240 241 245 252 248 245 248 243 247 248 249 248 247 244 243 246 245 246 247 243 242 243 243 245 241 244 243 244 242 243 243
252 243 249 242 246 252 245 249 245 246 241 245 244 240 236 243 249 253 251 251 248 250 250 252 253 247 246 249 251 249 251 248 246 246 249 247 247 248 247 246 247 250 244 245 243 243 246 246 246 245 246 245 246 245
254 249 240 236 240 241 242 239 239 243 245 249 244 244 245 250 250 256 251 249 252 254 255 258 258 256 258 253 251 250 243 249 251 250 246 245 248 249 250 249 249 250 244 244 243 244 246 247 247 248 249 249 248 247
247 243 254 245 241 237 244 240 243 248 248 243 246 250 251 254 258 257 256 250 248 244 245 245 248 254 253 253 248 246 243 242 243 245 247 250 250 250 249 250 251 255 250 247 248 247 246 247 247 248 249 249 251 252
246 240 247 243 240 241 246 251 251 246 242 247 251 250 251 251 250 248 249 244 240 246 249 250 252 242 243 242 242 242 245 247 250 251 251 252 250 253 248 248 248 248 247 246 250 255 253 251 251 251 253 254 254 252
245 237 246 242 251 253 247 240 240 233 232 235 234 240 243 245 246 241 241 241 246 252 257 256 252 252 255 253 253 248 246 248 252 256 256 255 255 251 248 248 248 248 247 246 248 249 252 253 253 252 251 251 252 252
240 242 248 246 250 241 234 229 229 230 231 231 229 236 242 241 242 245 248 252 254 247 249 250 249 249 252 250 252 250 255 251 251 252 254 253 249 249 249 250 250 248 246 247 247 247 248 249 250 251 251 251 251 252
244 246 251 254 250 238 235 240 239 238 235 235 237 231 237 239 246 254 246 247 249 251 254 257 257 258 255 258 255 253 255 253 253 253 251 253 253 253 251 250 247 246 246 248 248 248 249 249 250 250 251 251 252 252
244 244 244 247 247 247 242 243 247 248 245 243 243 241 240 244 252 256 248 249 250 252 253 255 256 251 253 255 256 256 255 254 253 258 258 258 256 255 251 249 248 248 248 249 250 250 250 250 250 250 250 250 251 251
Wind_Speed
36 35 36 38 35 34 37 40 41 42 41 41 40 37 37 34 20 6 1 4 4 4 4 6 4 8 4 5 5 3 3 1 3 4 4 3 6 4 5 5 11 6 6 3 4 5 7 16 5 3 6 9 11 12
33 31 31 34 37 37 38 39 39 39 39 38 37 34 33 28 20 7 4 3 4 7 2 2 3 3 2 2 6 4 2 3 3 4 3 3 2 2 4 4 4 4 1 5 4 5 7 14 15 12 15 11 8 11
36 27 27 29 31 33 35 36 35 36 36 34 32 31 28 25 18 7 3 1 5 4 1 3 3 6 5 5 5 5 2 5 4 3 3 4 6 2 3 1 6 4 11 5 7 7 10 11 12 13 13 13 11 11
36 24 24 25 27 29 30 31 31 31 32 31 30 29 27 21 12 8 4 3 5 4 3 2 4 4 9 7 5 0 6 6 6 3 1 1 3 5 5 5 7 5 10 5 9 10 10 11 13 12 12 12 12 11
36 24 22 23 24 26 27 27 28 29 29 28 28 27 23 19 21 12 5 4 2 5 3 1 1 7 9 6 9 8 5 5 2 3 2 3 4 5 4 6 7 9 7 5 4 7 5 7 10 14 11 12 12 12
36 29 19 21 22 22 23 24 25 24 24 24 25 24 20 18 8 5 4 4 6 4 4 3 2 5 7 9 14 11 5 4 2 4 2 5 5 4 6 6 7 10 9 13 5 9 4 5 11 13 11 12 13 11
35 35 14 19 19 22 22 21 22 23 23 23 22 22 15 18 8 7 2 4 10 2 5 2 2 3 5 4 3 3 4 2 3 2 5 5 8 8 6 5 8 10 6 9 12 10 2 12 6 11 12 12 11 9
33 33 28 17 18 17 20 23 24 25 25 28 28 25 26 23 11 6 10 11 2 7 5 3 1 3 7 3 2 2 1 1 5 4 6 5 5 7 8 7 8 11 5 10 13 8 6 8 9 10 10 11 11 10
31 29 30 22 20 23 28 30 30 29 29 27 22 17 8 7 4 2 4 13 9 7 5 4 3 1 7 2 2 3 2 5 4 6 5 5 5 10 6 8 9 10 8 9 10 4 8 9 10 11 12 11 10 11
27 27 25 26 26 24 27 28 26 21 16 14 8 4 4 3 10 5 7 6 8 7 6 4 2 2 4 4 3 3 5 2 4 4 6 7 5 5 6 6 6 8 8 9 7 8 11 8 11 11 10 9 10 11
26 24 22 21 19 11 14 16 14 9 10 4 4 4 2 11 3 5 6 7 5 6 7 4 4 4 6 5 3 4 2 2 4 2 6 4 3 4 7 6 6 7 7 7 5 6 7 8 10 10 11 11 10 11
25 23 21 20 17 15 3 7 9 8 2 6 8 6 5 9 5 8 4 4 9 2 6 5 6 5 5 3 1 4 3 3 4 2 6 4 2 2 3 3 4 5 6 6 4 6 8 9 8 9 9 10 10 11
23 24 22 20 20 16 17 20 24 16 4 4 9 9 8 8 16 10 8 4 4 5 5 5 3 3 3 4 4 4 6 4 2 7 4 2 3 0 1 2 3 3 3 4 5 5 7 8 7 6 10 9 8 10
13 23 24 21 20 20 16 14 10 8 9 9 8 11 8 7 4 2 3 3 3 3 6 6 4 5 3 4 2 6 1 3 6 5 1 3 4 3 3 3 1 4 5 6 7 6 8 8 10 8 7 8 8 10
4 14 23 24 19 16 18 21 19 8 8 9 8 8 6 2 1 2 3 4 4 5 5 4 3 1 5 6 5 3 7 6 1 4 2 3 4 4 3 3 4 5 5 6 4 6 10 9 9 11 10 7 7 8
4 6 14 19 21 12 10 12 8 6 8 8 12 5 1 2 3 3 0 3 2 3 2 1 1 6 6 3 8 2 5 2 4 4 4 2 2 3 4 5 6 5 6 6 7 5 8 7 9 11 10 11 9 7
13 4 24 15 9 17 15 8 7 13 8 9 5 2 2 2 3 3 1 3 1 2 1 2 8 3 0 6 5 3 4 4 4 3 3 5 5 5 5 4 5 5 6 7 4 7 7 8 6 6 8 9 8 9
4 5 18 12 4 7 6 10 9 9 11 3 4 4 1 2 2 4 4 2 2 1 2 2 5 7 4 5 3 5 4 3 3 3 4 4 5 5 4 7 7 5 7 7 6 6 4 6 6 6 7 8 8 9
10 13 23 16 8 8 8 10 7 8 1 2 1 1 1 3 3 3 2 3 2 1 4 4 8 3 3 4 4 3 3 4 3 4 4 5 5 6 6 5 6 5 5 4 4 5 5 7 7 7 6 6 8 8
7 22 22 23 12 8 10 6 5 7 3 3 2 3 2 3 3 2 3 4 3 3 7 5 4 5 5 4 4 4 4 4 4 1 5 4 4 3 5 4 4 4 4 5 5 5 4 5 3 4 4 5 7 10
10 11 17 10 8 11 9 3 6 3 2 3 3 1 3 3 4 4 4 1 4 3 3 4 4 4 2 2 1 2 3 5 6 5 5 4 3 3 4 3 3 2 2 3 4 7 4 5 5 4 4 7 6 8
3 11 4 8 9 7 8 5 4 0 4 1 3 3 4 4 4 5 5 5 2 4 4 5 4 4 1 3 5 6 4 4 1 2 2 1 4 3 4 4 0 4 4 5 5 6 6 5 4 4 4 7 6 7
7 7 8 9 10 10 2 3 6 7 5 4 3 5 4 4 4 3 3 3 5 4 3 3 3 3 3 2 3 4 5 5 4 5 5 5 5 5 4 5 4 4 5 6 4 4 5 5 5 5 5 7 5 8
12 11 9 7 7 2 3 6 3 4 4 5 4 2 4 3 6 5 2 4 5 1 1 4 3 2 3 2 3 5 5 6 3 4 3 2 4 6 5 5 4 5 6 5 3 4 4 5 4 4 5 6 7 7
11 12 7 6 4 7 7 5 6 5 2 1 2 3 3 3 3 2 3 5 3 4 4 3 2 3 4 3 3 5 3 5 5 5 4 6 2 3 4 4 5 6 3 1 4 4 5 3 4 5 6 6 9 11
9 6 5 3 3 5 5 4 2 5 3 1 5 3 3 3 3 6 6 5 5 6 7 9 8 4 4 7 4 3 5 6 4 2 5 5 5 4 3 3 3 5 4 4 3 4 6 5 6 8 9 10 10 10
5 0 1 2 4 4 4 3 2 3 3 4 3 2 3 1 6 7 4 4 5 6 6 7 9 8 7 4 5 4 3 6 6 4 1 3 4 5 5 5 6 6 3 5 4 5 6 8 9 10 11 10 9 9
4 5 6 4 3 0 6 2 4 7 5 3 4 3 7 10 8 5 6 3 1 1 1 1 2 4 4 4 4 4 2 1 3 4 5 6 6 6 7 7 8 11 6 6 6 6 6 8 9 10 11 12 13 10
3 1 4 4 2 0 5 7 7 4 3 5 6 5 7 6 4 3 3 2 1 3 2 2 4 2 1 1 1 2 4 5 5 3 5 5 4 4 6 6 5 4 4 4 9 10 10 9 10 10 12 11 11 10
1 1 5 2 6 6 3 2 2 1 1 1 1 5 5 6 6 2 2 2 3 8 9 6 4 7 6 6 5 4 6 7 8 8 6 6 6 3 4 5 5 5 4 4 6 6 9 8 9 6 7 7 7 8
1 1 3 1 4 1 2 2 1 1 1 2 1 3 5 8 9 7 9 8 7 4 4 5 5 6 7 6 7 4 5 7 12 14 9 4 3 4 5 5 5 4 4 4 4 5 6 7 7 9 10 11 12 11
1 2 3 2 2 0 1 0 1 1 2 2 3 1 4 4 7 7 3 5 5 8 14 9 9 11 12 8 5 4 3 3 7 9 11 8 7 6 5 4 3 3 3 5 5 5 7 8 8 9 10 14 13 13
1 1 1 1 1 1 1 1 1 3 2 3 4 4 3 3 10 6 2 5 5 5 7 7 6 2 5 9 10 7 8 5 6 8 9 10 8 6 4 4 4 4 6 5 6 6 9 10 10 11 12 13 13 14
Wind_Direction
12 28 41 55 69 83 100 111 120 125 133 141 145 149 155 168 154 99 109 19 112 92 14 360 351 130 126 145 141 197 91 236 145 154 190 159 224 192 100 133 171 153 134 179 108 106 235 353 321 171 68 61 44 37
16 32 50 64 77 88 98 107 115 123 131 135 144 147 153 159 170 87 76 354 39 73 105 346 77 78 334 62 134 177 159 201 170 138 167 208 115 65 159 122 25 124 18 133 23 103 68 42 67 45 58 70 40 34
12 35 55 70 83 96 105 111 120 129 133 134 138 140 143 147 152 106 101 47 66 98 55 43 348 327 21 4 295 131 221 174 80 35 107 238 101 126 120 109 108 79 16 91 134 71 75 60 57 52 47 52 36 30
11 32 59 74 86 97 107 115 121 125 129 132 136 140 140 141 115 93 75 348 82 99 87 329 323 0 317 320 237 288 129 73 101 60 304 282 88 15 55 70 73 349 324 41 91 110 110 66 44 27 38 34 28 18
13 24 66 79 90 101 109 115 121 127 130 133 140 140 141 103 96 86 82 23 25 98 139 71 278 355 347 356 59 54 72 106 83 104 19 33 50 66 67 80 48 357 11 22 72 36 354 66 42 23 24 17 15 4
15 20 71 86 96 100 110 117 122 126 129 131 137 140 120 123 95 71 56 345 356 73 109 65 276 5 341 18 48 43 24 44 74 100 32 72 48 43 80 71 44 28 26 28 29 335 43 356 73 20 9 7 6 354
15 20 67 85 100 113 118 120 123 125 127 130 136 132 105 85 71 63 56 268 316 359 79 60 45 32 343 333 31 16 18 48 70 87 67 48 24 38 61 71 14 15 5 44 19 353 95 37 341 350 2 359 353 335
17 18 27 80 96 105 118 119 113 109 112 107 103 98 93 88 102 41 16 357 350 83 49 91 265 53 17 352 72 340 76 30 26 79 66 45 28 48 70 26 15 11 1 43 19 19 28 340 356 359 357 352 349 349
23 21 26 53 84 95 101 101 105 106 108 107 98 77 57 46 56 74 21 49 47 62 95 60 48 164 344 332 21 36 30 55 31 60 54 59 17 48 11 356 8 13 13 343 342 15 8 4 352 351 349 345 337 328
29 27 24 32 50 84 107 109 106 100 95 75 48 70 73 26 322 35 12 34 28 11 29 81 291 293 336 337 38 32 34 63 66 51 91 55 73 89 24 10 2 1 3 358 353 358 353 352 343 335 330 320 315 313
32 36 30 28 32 39 102 81 58 50 44 47 57 63 15 328 51 37 57 42 337 43 5 340 16 345 3 27 32 25 72 15 77 50 85 56 66 45 11 10 4 359 359 357 344 309 305 300 308 316 315 311 307 303
36 35 42 33 33 26 65 77 68 63 30 86 105 83 45 28 13 73 53 26 37 47 349 350 340 354 303 271 206 8 85 41 81 37 77 70 136 40 359 352 347 349 341 327 317 303 306 306 302 295 292 293 296 296
34 39 36 42 41 41 65 88 87 103 81 52 51 56 17 331 39 31 348 42 46 358 8 338 261 272 300 10 63 34 63 66 110 43 75 121 144 200 319 310 304 299 285 284 297 291 293 291 286 270 289 285 278 289
45 35 42 34 41 48 56 59 55 53 61 58 46 38 54 10 34 6 318 313 326 311 335 329 312 12 348 37 351 77 358 40 66 56 135 189 196 222 251 236 215 286 297 295 293 292 297 298 301 293 259 274 286 295
66 44 33 41 34 50 65 63 51 47 61 60 41 56 62 195 269 271 313 324 323 343 343 337 292 306 11 64 28 92 44 49 129 183 204 209 205 209 248 251 260 285 294 302 289 300 303 301 293 294 297 275 272 282
26 32 10 22 35 52 78 57 38 67 59 66 38 77 25 100 329 2 304 259 239 289 281 268 219 66 42 76 50 69 92 207 223 210 221 172 230 231 245 253 265 259 263 269 277 259 279 283 288 289 297 294 286 276
59 30 334 354 42 45 55 75 54 49 66 49 26 37 110 116 226 274 258 266 326 54 33 75 54 188 224 53 43 198 160 200 194 233 220 207 207 234 246 255 266 266 281 278 268 285 271 278 288 309 299 296 297 291
61 300 359 8 58 46 40 42 75 70 63 11 81 277 266 197 249 283 256 281 33 69 74 122 119 54 97 113 254 230 224 248 228 209 219 235 238 256 228 250 264 250 263 270 258 266 270 291 289 280 281 284 296 297
27 22 25 29 76 84 62 29 47 89 105 200 277 311 208 258 259 291 288 302 244 185 91 43 68 101 204 209 180 226 230 196 190 239 242 248 233 241 251 242 254 265 267 264 294 290 272 266 266 282 287 297 297 300
23 17 16 22 43 70 64 20 42 88 110 220 48 355 221 220 272 326 340 350 26 63 42 54 180 209 176 215 193 170 185 158 127 341 283 270 233 225 247 234 263 265 284 288 266 244 289 296 270 268 272 279 297 302
31 350 16 44 49 59 81 15 57 95 154 98 253 70 281 2 17 1 319 320 68 75 56 211 213 244 239 269 218 144 166 166 195 177 208 273 274 221 289 272 250 284 245 287 289 290 261 249 267 271 281 294 286 287
311 5 52 33 72 56 76 8 102 14 60 226 28 23 22 8 333 330 304 36 65 234 181 170 210 179 207 224 211 207 196 186 242 272 302 32 282 294 277 236 87 273 259 257 243 258 263 257 265 274 272 292 286 287
12 34 44 27 70 45 306 31 66 359 70 314 14 31 349 343 250 320 35 221 254 235 188 191 210 195 190 322 345 283 200 174 228 227 235 230 242 254 260 262 202 237 276 276 215 244 262 267 279 281 286 294 287 291
28 48 45 45 45 113 6 24 35 50 38 31 50 350 321 277 329 42 228 255 246 339 189 218 146 58 355 345 257 241 215 186 236 292 206 176 260 266 216 242 228 226 224 262 259 264 267 268 274 289 285 285 292 285
65 355 41 17 353 67 47 16 354 48 79 317 61 330 313 358 25 353 235 266 251 228 212 156 173 216 207 252 279 261 206 168 185 227 244 193 206 320 285 254 252 241 174 174 276 260 274 271 269 270 279 275 283 291
72 319 65 213 311 101 187 106 173 181 146 130 228 269 17 76 50 247 232 216 213 194 184 189 190 181 246 212 234 250 242 174 131 181 268 185 187 195 248 285 314 302 191 193 194 258 275 277 279 283 287 281 275 278
89 245 342 202 120 112 68 36 68 99 134 186 212 85 66 78 248 248 265 221 199 210 192 175 175 184 210 200 222 231 176 176 184 185 177 190 207 198 189 219 245 237 174 190 209 219 262 285 287 289 289 288 274 265
141 164 141 195 88 216 131 106 151 197 212 210 93 182 183 199 235 233 208 254 198 90 128 233 225 189 179 191 177 135 147 184 316 308 285 254 233 218 213 228 241 247 231 210 227 230 235 253 268 276 280 283 292 290
86 258 105 62 54 77 206 176 205 219 170 154 166 225 238 233 247 240 257 232 135 121 143 206 241 141 320 299 200 195 153 155 142 226 262 258 310 279 196 211 226 227 224 237 256 254 252 245 251 254 268 282 292 295
183 332 92 102 152 218 236 141 228 300 272 256 298 303 279 263 248 201 156 151 177 206 209 199 166 169 206 190 231 252 205 198 204 202 208 223 222 209 178 203 220 231 220 224 257 270 279 283 285 280 278 281 283 285
142 126 83 96 214 254 257 287 293 315 328 298 289 212 265 308 301 239 215 216 214 144 150 206 213 201 187 191 191 187 258 206 210 217 230 244 208 219 223 225 225 216 211 224 240 255 272 285 280 286 289 289 291 291
126 151 135 181 256 346 229 350 352 298 314 338 273 280 300 328 274 274 189 132 155 210 221 212 207 222 206 217 188 197 173 160 177 200 204 217 231 231 221 218 198 196 221 244 249 257 263 267 281 283 289 293 293 294
120 137 101 79 102 231 146 276 233 293 218 258 251 206 234 239 253 287 283 219 194 197 209 218 236 229 181 197 209 208 202 200 196 200 202 210 215 223 213 206 199 208 229 241 249 253 265 269 275 276 277 280 285 289